[[{"header":{"parameterUnit":"m.s-1","parameterCategory":1,"la1":30.2991,"la2":30.254,"lo1":-89.0895,"lo2":-89.0444,"dy":0.0017,"dx":0.0017,"nx":28,"ny":28,"refTime":"2023-05-26T21:00:00:Z","depth":0,"parameterNumber":2,"parameterNumberName":"U-component_of_WINDS"},"data":[0,0,0,0,0,0,0,0,0,0,0,0,0,0,0,0,0,0,0,0,0,0,0,0,0,0,0,0,0,0,0,0,0,0,0,0,0,0,0,0,0,0,0,0,0,0,0,0,0,0,0,0,0,0,0,0,0,0,0.1943,0.1942,0,0.1874,0.1873,0.1872,0.1803,0.1803,0.1802,0.1801,0.1729,0.1728,0.1727,0,0,0,0,0,0,0,0,0,0,0,0,0,0.2015,0.2015,0.1943,0.1942,0.1941,0.1874,0.1873,0.1872,0.1804,0.1803,0.1801,0.18,0.173,0.1728,0.1727,0,0,0,0,0,0,0,0,0,0,0,0,0,0.1969,0.2014,0.1943,0.1899,0.1894,0.1874,0.1873,0.1872,0.1804,0.1802,0.1801,0.18,0.173,0.1728,0.1727,0.1745,0,0,0.1722,0.1721,0,0,0,0,0,0,0,0,0.1972,0.1966,0.1906,0.1902,0.1897,0.1846,0.1872,0.1829,0.1804,0.1838,0.1801,0.1799,0.1769,0.1764,0.1754,0.1741,0.1738,0.1722,0.1721,0.172,0.172,0,0,0,0,0,0,0,0.1975,0.1969,0.1916,0.1906,0.19,0.1883,0.1875,0.1864,0.1812,0.1835,0.183,0.1823,0.1766,0.1756,0.1752,0.1737,0.1722,0.1721,0.172,0.1719,0.1736,0.1738,0,0,0,0,0,0,0.1985,0.1972,0.1918,0.1914,0.1932,0.1883,0.1873,0.1864,0.1812,0.1803,0.1824,0.182,0.1759,0.1754,0.1749,0.1767,0.172,0.1719,0.1718,0.1735,0.1737,0.1738,0,0,0,0,0,0,0.1987,0.1981,0.1921,0.1942,0.1933,0.1883,0.1872,0.1863,0.1853,0.1804,0.1794,0.1823,0.1758,0.1751,0.1747,0.1764,0.1718,0.1717,0.1733,0.1735,0.1737,0.1804,0,0,0,0,0,0,0.1989,0.1982,0.1988,0.1942,0.1932,0.1919,0.1873,0.1863,0.185,0.1844,0.18,0.1792,0.1756,0.1749,0.1745,0.1761,0.1715,0.1731,0.1734,0.1737,0.18,0.1808,0.1815,0,0,0,0,0,0.1992,0.2009,0.1989,0.1983,0.1938,0.1921,0.1915,0.1874,0.1852,0.1858,0.1827,0.1793,0.1763,0.1749,0.1744,0.176,0.173,0.1733,0.1736,0.1796,0.1806,0.1814,0,0,0,0,0,0,0.2058,0.2002,0.1979,0.1982,0.1957,0.1909,0.1915,0.1885,0.1866,0.1861,0.1811,0.1801,0.1803,0.178,0.1766,0.1775,0.1742,0.1744,0.1789,0.1798,0.1806,0.1811,0.1714,0,0,0,0,0,0.2073,0.2063,0.2015,0.2022,0.201,0.1965,0.1956,0.1927,0.1899,0.1887,0.1856,0.1829,0.1814,0.1805,0.1788,0.1796,0.1786,0.1804,0.1812,0.1818,0.1821,0.1825,0.1833,0.1748,0.1748,0.1748,0,0,0.2103,0.2071,0.2068,0.2034,0.2011,0.2003,0.1957,0.1949,0.1942,0.1886,0.188,0.1856,0.1823,0.1825,0.1825,0.1807,0.1842,0.1822,0.1828,0.1827,0.1829,0.1837,0.1844,0.1751,0.175,0.175,0,0,0.2154,0.2129,0.2133,0.2111,0.2077,0.2047,0.2048,0.2005,0.1987,0.1981,0.1939,0.193,0.1904,0.1883,0.1869,0.1913,0.1882,0.1909,0.1948,0.1953,0.1959,0.1965,0.1982,0.1988,0.1912,0.1912,0.1912,0,0.2196,0.2181,0.2138,0.2134,0.212,0.207,0.2073,0.2054,0.2017,0.2009,0.1989,0.1957,0.1931,0.1928,0.1939,0.1929,0.1929,0.1914,0.1962,0.1967,0.1972,0.1987,0.1994,0.1916,0.1915,0.1915,0.1914,0,0.2235,0.2226,0.2233,0.2199,0.2186,0.2185,0.2142,0.2135,0.2107,0.2079,0.2074,0.2041,0.2017,0.2014,0.1987,0.2008,0.1998,0.1971,0.1937,0.1984,0.1998,0.2003,0.1921,0.1919,0.1918,0.1917,0,0,0.2325,0.2268,0.2271,0.2256,0.2215,0.2207,0.2205,0.2182,0.2177,0.2153,0.215,0.213,0.2105,0.2089,0.2059,0.2063,0.2101,0.2035,0.2033,0.2049,0.2124,0.2145,0.2152,0.208,0.2081,0.2082,0.2127,0,0.237,0.2363,0.2324,0.2329,0.232,0.2273,0.2271,0.2246,0.222,0.2209,0.218,0.2167,0.2135,0.2125,0.2127,0.2096,0.2116,0.2093,0.2077,0.2077,0.2088,0.2159,0.2181,0.2225,0.2132,0.2132,0.2133,0,0.242,0.2401,0.2405,0.2366,0.236,0.2359,0.2336,0.2326,0.2297,0.2278,0.2261,0.2228,0.2223,0.2191,0.2184,0.2169,0.2161,0.2145,0.2146,0.2143,0.2109,0.2159,0.2238,0.2245,0.2141,0.214,0.214,0,0.2487,0.2461,0.246,0.2448,0.2402,0.2403,0.2384,0.2354,0.2343,0.2322,0.2315,0.2294,0.2283,0.2268,0.223,0.221,0.2227,0.2192,0.2212,0.2213,0.2218,0.2218,0.2297,0.2212,0.2211,0.2211,0.2211,0,0.2541,0.2545,0.249,0.2489,0.2493,0.2449,0.2454,0.243,0.2404,0.2398,0.2356,0.2351,0.2301,0.2291,0.2261,0.2261,0.2255,0.224,0.2232,0.2244,0.2247,0.2238,0.2235,0.2213,0.2213,0.2212,0.2212,0,0.2616,0.2578,0.2575,0.2532,0.2522,0.2526,0.249,0.2488,0.246,0.2453,0.2449,0.2405,0.2391,0.2352,0.2327,0.2307,0.2316,0.23,0.2326,0.2321,0.2343,0.2342,0.242,0.2428,0.2338,0.2338,0.2339,0,0.2653,0.2655,0.2614,0.2607,0.259,0.258,0.2569,0.2526,0.2517,0.2485,0.2487,0.247,0.2454,0.2434,0.24,0.2381,0.2365,0.2394,0.2362,0.2375,0.2367,0.2367,0.2368,0.2401,0.2402,0.2403,0.2404,0,0.2724,0.2705,0.2692,0.2672,0.2661,0.2643,0.2622,0.2619,0.2571,0.2563,0.2549,0.2536,0.2512,0.2496,0.2472,0.2452,0.2421,0.2414,0.2418,0.2431,0.2446,0.2439,0.2345,0.2413,0.2412,0.2411,0.2411,0.241,0.2781,0.2781,0.2753,0.2739,0.272,0.2702,0.2699,0.2671,0.2658,0.2636,0.2611,0.26,0.2572,0.2537,0.2519,0.251,0.2493,0.2498,0.2499,0.2501,0.2508,0.2447,0.2505,0.2505,0.2504,0.2504,0.2504,0,0.285,0.2829,0.2817,0.2791,0.2781,0.2752,0.2729,0.2722,0.2713,0.269,0.2675,0.2659,0.2644,0.2609,0.259,0.2589,0.2574,0.2586,0.2586,0.2582,0.2523,0.2522,0.2598,0.2598,0.2598,0.2598,0.2598,0.2598,0.2885,0.2885,0.2863,0.2853,0.2832,0.2822,0.2811,0.2795,0.2776,0.276,0.2748,0.2725,0.2697,0.2676,0.2661,0.2651,0.2646,0.2663,0.2649,0.2595,0.2586,0.2577,0.2576,0.2662,0.2662,0.2708,0.2708,0.2709]},{"header":{"parameterUnit":"m.s-1","parameterCategory":1,"la1":30.2991,"la2":30.254,"lo1":-89.0895,"lo2":-89.0444,"dy":0.0017,"dx":0.0017,"nx":28,"ny":28,"refTime":"2023-05-26T21:00:00:Z","depth":0,"parameterNumber":3,"parameterNumberName":"V-component_of_WINDS"},"data":[0,0,0,0,0,0,0,0,0,0,0,0,0,0,0,0,0,0,0,0,0,0,0,0,0,0,0,0,0,0,0,0,0,0,0,0,0,0,0,0,0,0,0,0,0,0,0,0,0,0,0,0,0,0,0,0,0,0,-1.3445,-1.3444,0,-1.334,-1.3338,-1.3337,-1.3247,-1.3246,-1.3245,-1.3244,-1.3134,-1.3132,-1.313,0,0,0,0,0,0,0,0,0,0,0,0,0,-1.3567,-1.3565,-1.3445,-1.3444,-1.3443,-1.334,-1.3338,-1.3337,-1.3247,-1.3245,-1.3244,-1.3243,-1.3135,-1.3133,-1.313,0,0,0,0,0,0,0,0,0,0,0,0,0,-1.3493,-1.3564,-1.3446,-1.3385,-1.3379,-1.334,-1.3338,-1.3336,-1.3247,-1.3245,-1.3244,-1.3243,-1.3136,-1.3133,-1.313,-1.3142,0,0,-1.3121,-1.312,0,0,0,0,0,0,0,0,-1.3497,-1.3489,-1.3396,-1.339,-1.3382,-1.3305,-1.3341,-1.3271,-1.3247,-1.3297,-1.3244,-1.3242,-1.3192,-1.3184,-1.3168,-1.3137,-1.3132,-1.3121,-1.3119,-1.3118,-1.3117,0,0,0,0,0,0,0,-1.3502,-1.3493,-1.3403,-1.3394,-1.3386,-1.3363,-1.3351,-1.3327,-1.3254,-1.3293,-1.3286,-1.3275,-1.3188,-1.3171,-1.3165,-1.313,-1.3121,-1.3118,-1.3116,-1.3115,-1.3102,-1.3103,0,0,0,0,0,0,-1.3517,-1.3497,-1.3407,-1.34,-1.3437,-1.3362,-1.3348,-1.3331,-1.3254,-1.3241,-1.3276,-1.3271,-1.3177,-1.3168,-1.316,-1.3168,-1.3118,-1.3115,-1.3113,-1.31,-1.3102,-1.3103,0,0,0,0,0,0,-1.352,-1.351,-1.3411,-1.3447,-1.3433,-1.3361,-1.3343,-1.333,-1.3312,-1.3242,-1.3228,-1.3272,-1.3175,-1.3165,-1.3147,-1.3163,-1.3113,-1.3111,-1.3098,-1.3101,-1.3103,-1.3185,0,0,0,0,0,0,-1.3524,-1.3512,-1.3516,-1.3448,-1.3431,-1.34,-1.3344,-1.3329,-1.3308,-1.33,-1.3234,-1.3222,-1.3173,-1.3152,-1.3144,-1.3158,-1.3108,-1.3097,-1.3099,-1.3102,-1.318,-1.3189,-1.3197,0,0,0,0,0,-1.3529,-1.3544,-1.3517,-1.3506,-1.3435,-1.3401,-1.3392,-1.3336,-1.331,-1.3313,-1.3267,-1.3224,-1.3163,-1.3151,-1.3141,-1.3155,-1.3095,-1.3099,-1.3102,-1.3176,-1.3188,-1.3197,0,0,0,0,0,0,-1.3616,-1.3534,-1.3503,-1.3497,-1.3457,-1.3386,-1.3389,-1.3349,-1.3316,-1.331,-1.3241,-1.3227,-1.3217,-1.3184,-1.3172,-1.3161,-1.3123,-1.3125,-1.3183,-1.3193,-1.3202,-1.321,-1.3106,0,0,0,0,0,-1.3634,-1.3614,-1.3543,-1.3544,-1.3526,-1.3461,-1.3444,-1.3404,-1.336,-1.3343,-1.3295,-1.3254,-1.3224,-1.3207,-1.3177,-1.3175,-1.3159,-1.3179,-1.3188,-1.3195,-1.3197,-1.3192,-1.32,-1.3114,-1.3114,-1.3114,0,0,-1.3672,-1.3625,-1.3616,-1.3561,-1.3525,-1.3505,-1.3448,-1.3429,-1.3413,-1.3339,-1.332,-1.3284,-1.3232,-1.3222,-1.3215,-1.3195,-1.3217,-1.3199,-1.3206,-1.3204,-1.3196,-1.3205,-1.3212,-1.3116,-1.3116,-1.3115,0,0,-1.3731,-1.3694,-1.369,-1.3655,-1.3602,-1.3558,-1.3557,-1.3492,-1.3466,-1.3445,-1.3389,-1.3368,-1.332,-1.3285,-1.3261,-1.3305,-1.3264,-1.3297,-1.3342,-1.3338,-1.3345,-1.335,-1.3365,-1.3371,-1.3299,-1.33,-1.33,0,-1.3785,-1.3753,-1.3693,-1.3677,-1.3654,-1.3586,-1.3581,-1.355,-1.3489,-1.3474,-1.3451,-1.3388,-1.3349,-1.3329,-1.334,-1.3323,-1.3319,-1.3305,-1.3349,-1.3354,-1.3358,-1.3371,-1.3377,-1.3304,-1.3303,-1.3303,-1.3303,0,-1.3821,-1.38,-1.3803,-1.3746,-1.3723,-1.3713,-1.365,-1.3633,-1.3595,-1.3554,-1.3532,-1.3482,-1.344,-1.3432,-1.3395,-1.3406,-1.3395,-1.3362,-1.3322,-1.3372,-1.3383,-1.3387,-1.331,-1.3309,-1.3307,-1.3306,0,0,-1.3933,-1.3842,-1.3844,-1.3817,-1.3752,-1.3734,-1.372,-1.3679,-1.3665,-1.3625,-1.3611,-1.3571,-1.3539,-1.3512,-1.347,-1.3466,-1.3503,-1.3433,-1.343,-1.3447,-1.3511,-1.3537,-1.3544,-1.3475,-1.3476,-1.3476,-1.3515,0,-1.3981,-1.3953,-1.3897,-1.3886,-1.3865,-1.3799,-1.3787,-1.3745,-1.3706,-1.3681,-1.3637,-1.3609,-1.357,-1.3553,-1.3547,-1.35,-1.3515,-1.3496,-1.346,-1.346,-1.3475,-1.355,-1.3577,-1.3617,-1.3519,-1.352,-1.3521,0,-1.4033,-1.3997,-1.3984,-1.392,-1.3909,-1.3899,-1.3855,-1.3833,-1.3784,-1.3755,-1.3724,-1.3677,-1.3658,-1.3621,-1.3593,-1.3581,-1.3563,-1.3538,-1.3538,-1.3532,-1.3493,-1.3546,-1.3628,-1.3634,-1.3527,-1.3527,-1.3526,0,-1.4116,-1.4063,-1.4048,-1.4027,-1.3952,-1.3946,-1.3914,-1.3863,-1.3842,-1.3803,-1.3788,-1.3748,-1.3726,-1.3696,-1.3639,-1.3618,-1.3616,-1.3576,-1.3591,-1.3593,-1.3594,-1.3595,-1.3674,-1.3583,-1.3583,-1.3583,-1.3583,0,-1.4175,-1.4169,-1.4084,-1.4075,-1.4066,-1.4002,-1.3995,-1.3956,-1.3912,-1.3893,-1.3834,-1.3817,-1.3743,-1.3718,-1.3673,-1.3656,-1.3646,-1.3622,-1.361,-1.3627,-1.363,-1.3614,-1.361,-1.3584,-1.3584,-1.3584,-1.3583,0,-1.4265,-1.4208,-1.4188,-1.4117,-1.4099,-1.4096,-1.4035,-1.4023,-1.398,-1.3957,-1.3948,-1.3879,-1.3846,-1.3786,-1.3736,-1.3706,-1.3698,-1.3677,-1.3715,-1.3707,-1.3726,-1.3725,-1.3798,-1.3803,-1.371,-1.3711,-1.3711,0,-1.4307,-1.4301,-1.423,-1.4214,-1.4184,-1.4158,-1.4135,-1.4071,-1.4049,-1.3992,-1.3986,-1.3949,-1.3915,-1.3865,-1.381,-1.3771,-1.3749,-1.3777,-1.3743,-1.376,-1.3749,-1.375,-1.3749,-1.3786,-1.3787,-1.3788,-1.3789,0,-1.4387,-1.4358,-1.4328,-1.4288,-1.4262,-1.4227,-1.4189,-1.4178,-1.4105,-1.4083,-1.4049,-1.4023,-1.3971,-1.3934,-1.3887,-1.3852,-1.3808,-1.38,-1.3801,-1.3819,-1.384,-1.3828,-1.3735,-1.3799,-1.3798,-1.3797,-1.3797,-1.3796,-1.4454,-1.4445,-1.4393,-1.4361,-1.4325,-1.429,-1.4275,-1.4229,-1.42,-1.4153,-1.4116,-1.4084,-1.4033,-1.3965,-1.3934,-1.3907,-1.3886,-1.3889,-1.3889,-1.3891,-1.3897,-1.3845,-1.3898,-1.3898,-1.3897,-1.3897,-1.3897,0,-1.453,-1.4493,-1.4464,-1.4412,-1.4386,-1.4347,-1.4302,-1.4283,-1.4256,-1.4212,-1.418,-1.4139,-1.4102,-1.4044,-1.4003,-1.3992,-1.3971,-1.3984,-1.3984,-1.3976,-1.3918,-1.3921,-1.4001,-1.4001,-1.4001,-1.4001,-1.4001,-1.4001,-1.4567,-1.4549,-1.4515,-1.4478,-1.4441,-1.441,-1.4387,-1.4354,-1.4319,-1.4276,-1.4246,-1.4208,-1.4158,-1.4112,-1.4076,-1.4059,-1.4046,-1.4066,-1.4043,-1.399,-1.398,-1.3971,-1.3973,-1.4063,-1.4064,-1.4103,-1.4103,-1.4104]}]]